Location: Newark
(35.6799°N, 139.7636°E)
Time: 04:35:07
(UTC+00:00)

Transit 2A - Pass Details

Date: 09 December 2019
Orbit: 601 x 958 km, 66.7° (Epoch: 22 January)

Event Time Altitude Azimuth Distance (km) Brightness Sun altitude
Rises 07:46:36 0° 323° (NW) 2,893 9.2 -4.3°
Reaches altitude 10° 07:48:55 10° 315° (NW) 2,013 8.5 -4.7°
Maximum altitude 07:53:04 37° 248° (WSW) 1,028 7.6 -5.5°
Drops below altitude 10° 07:57:31 10° 182° (S) 2,161 8.7 -6.3°
Sets 08:00:06 0° 174° (S) 3,137 9.4 -6.8°
